User: anonymous   Login
Location: Blanot
(47.1713°N, 4.2340°E)
Time: 10:04:12
(UTC+00:00)
Language:

Cosmos 2278 - Orbit

View from above orbital plane
View from above orbital plane
View from above satellite
View from above satellite

Ground track
Ground track

The orbit data is extracted from the following two-line orbital elements,

1 23087U 94023A   20269.99928590 -.00000037  00000-0  53809-5 0  9999
2 23087  71.0550  17.4948 0009597 200.3336 159.7406 14.13804712363656
Epoch (UTC): 25 September 2020 23:58:58
Eccentricity: 0.0009597
inclination: 71.0550°
perigee height: 839 km
apogee height: 853 km
right ascension of ascending node: 17.4948°
argument of perigee: 200.3336°
revolutions per day: 14.13804712
mean anomaly at epoch: 159.7406°
orbit number at epoch: 36365

The dashed part of the orbit path shows where the satellite is in the earth's shadow,  

DLR